This demonstration page uses our WeatherBlox Daily Observations layout. Learn more.

Left ArrowRight Arrow

Hourly Observations for September 27, 2015

Temp ( °F °C ) Dew Point ( °F °C ) Humidity (%) Winds ( mph kmh ) Pressure ( in mb ) Visibility ( mi km ) Precip ( " mm )
12:53 am 00:53 Cloudy 66 18.9 61 16.1 84 84 ESE 9 15 30.19 1022 10 16.0934 0 0
1:53 am 01:53 Cloudy 66 18.9 60 15.6 81 81 E 9 15 30.17 1022 10 16.0934 0 0
2:53 am 02:53 Mostly Cloudy 66 18.9 60 15.6 81 81 E 6 9 30.17 1022 10 16.0934 0 0
3:53 am 03:53 Mostly Cloudy 64 17.8 59 15 84 84 E 6 9 30.16 1022 10 16.0934 0 0
4:53 am 04:53 Mostly Cloudy 63 17.2 59 15 87 87 E 5 7 30.16 1021 10 16.0934 0 0
5:53 am 05:53 Cloudy 64 17.8 59 15 84 84 E 5 7 30.16 1022 10 16.0934 0 0
6:53 am 06:53 Cloudy 64 17.8 58 14.4 81 81 E 6 9 30.16 1022 10 16.0934 0 0
7:53 am 07:53 Sunny 63 17.2 57 13.9 81 81 ESE 6 9 30.18 1022 10 16.0934 0 0
8:53 am 08:53 Sunny 65 18.3 58 14.4 78 78 E 6 9 30.19 1022 10 16.0934 0 0
9:53 am 09:53 Sunny 68 20 58 14.4 70 70 VRB 3 6 30.19 1022 10 16.0934 0 0
10:53 am 10:53 Cloudy 69 20.6 59 15 70 70 ESE 7 11 30.19 1022 10 16.0934 0 0
11:53 am 11:53 Cloudy 73 22.8 60 15.6 64 64 VRB 6 9 30.18 1022 10 16.0934 0 0
12:53 pm 12:53 Mostly Cloudy 77 25 60 15.6 56 56 SSW 8 13 30.16 1021 10 16.0934 0 0
1:53 pm 13:53 Mostly Cloudy 78 25.6 61 16.1 56 56 VRB 5 7 30.13 1020 10 16.0934 0 0
2:53 pm 14:53 Mostly Cloudy 80 26.7 61 16.1 52 52 VRB 7 11 30.11 1020 10 16.0934 0 0
3:53 pm 15:53 Cloudy 80 26.7 61 16.1 52 52 VRB 3 6 30.09 1019 10 16.0934 0 0
4:53 pm 16:53 Cloudy 79 26.1 62 16.7 56 56 VRB 3 6 30.08 1019 10 16.0934 0 0
5:53 pm 17:53 Cloudy 78 25.6 62 16.7 58 58 VRB 3 6 30.07 1018 10 16.0934 0 0
6:53 pm 18:53 Cloudy 77 25 62 16.7 60 60 VRB 6 9 30.08 1019 10 16.0934 0 0
7:53 pm 19:53 Partly Cloudy 74 23.3 63 17.2 69 69 E 3 6 30.08 1019 10 16.0934 0 0
8:53 pm 20:53 Clear 72 22.2 63 17.2 73 73 ESE 8 13 30.09 1019 10 16.0934 0 0
9:53 pm 21:53 Clear 70 21.1 63 17.2 79 79 ESE 7 11 30.1 1019 10 16.0934 0 0
10:53 pm 22:53 Mostly Cloudy 68 20 63 17.2 84 84 ESE 3 6 30.11 1020 10 16.0934 0 0
11:53 pm 23:53 Mostly Cloudy 68 20 63 17.2 84 84 E 3 6 30.11 1020 10 16.0934 0 0

Powered by AerisWeather